Regional Weather Roundup
Issued by NWS Green Bay, WI

Home | Current Version | Previous Version | Text Only | Print | Product List | Glossary On
Versions: 1 2 3 4 5 6 7 8 9 10 11 12 13 14 15 16 17 18 19 20 21 22 23 24 25 26 27 28 29 30 31 32 33 34 35 36 37 38 39 40 41 42 43 44 45 46 47 48 49 50
000
ASUS43 KGRB 180459
RWRGRB

NORTH-CENTRAL AND NORTHEAST WISCONSIN REGIONAL WEATHER ROUNDUP
NATIONAL WEATHER SERVICE GREEN BAY WI
1200 AM CDT THU SEP 18 2014

WIZ005-009-010>012-018-019-180600-
NORTH CENTRAL WISCONSIN

CITY           SKY/WX    TMP DP  RH WIND       PRES   REMARKS
IRONWOOD       CLOUDY    43  39  87 NE6       30.10S
MANITOWISH WTR NOT AVBL
ARBOR VITAE    NOT AVBL
EAGLE RIVER    NOT AVBL
LAND O LAKES   NOT AVBL
RHINELANDER    CLOUDY    46  41  82 NE5       30.10S
PHILLIPS       MOCLDY    46  44  94 NE6       30.09S
ANTIGO         NOT AVBL
TOMAHAWK       NOT AVBL
MERRILL        NOT AVBL
$$

WIZ013-073-180600-
NORTHEAST WISCONSIN

CITY           SKY/WX    TMP DP  RH WIND       PRES   REMARKS
IRON MOUNTAIN  CLOUDY    42  36  79 N10       30.12R
MARINETTE      CLOUDY    45  37  76 N9        30.11R
$$

WIZ017-030-035>037-045-180600-
CENTRAL WISCONSIN

CITY           SKY/WX    TMP DP  RH WIND       PRES   REMARKS
MEDFORD        NOT AVBL
WAUSAU         MOCLDY    52  49  89 E7        30.06R
MOSINEE        PTCLDY    50  50 100 E10       30.08R
MARSHFIELD     CLEAR     54  50  86 NE8       30.05R
WISC RAPIDS    CLEAR     50  48  93 E6        30.06R
STEVENS POINT  NOT AVBL
WAUPACA        NOT AVBL
SHAWANO        MOCLDY    50  44  78 NE9       30.10R
CLINTONVILLE   PTCLDY    46  43  87 E8        30.09R
$$

WIZ038-039-048-051-180600-
FOX VALLEY

CITY           SKY/WX    TMP DP  RH WIND       PRES   REMARKS
NWS GREEN BAY  CLOUDY    51  47  86 NE20      30.09R
APPLETON       NOT AVBL
OSHKOSH        CLOUDY    54  50  86 NE13      30.06R
FOND DU LAC    PTCLDY    54  51  90 NE15      30.06R
$$

WIZ022-050-052-180600-
EAST CENTRAL WISCONSIN

CITY           SKY/WX    TMP DP  RH WIND       PRES   REMARKS
STURGEON BAY   CLOUDY    48  41  76 NE10      30.10R
MANITOWOC      NOT AVBL
SHEBOYGAN      CLEAR     52  48  86 NE12      30.06R
$$

LMZ563-521-522-541>543-180600-
LAKESHORE

STATION/POSITION TIME  TEMP    WIND        PRES    VSBY  WAVE
                       AIR SEA DIR/SP/G                  HT/PER
                 (UTC) (F)     (DEG/KT/KT) (MB)    (MI)  (FT/S)
SHEBOYGAN LKSHOR 0400   56 51  360/ 13/ 15 1017.5R
KEWAUNEE LKSHORE 0400   52      20/ 12/ 19 1017.4R
NORTHPORT PIER   0400   49      10/ 10/ 18 1019.3R
N MID LAKE BUOY  0400   48 59   10/ 19/ 23 1018.6R         4/ 5
S GREEN BAY BUOY 0400   52     VRB 21/ 25  1019.5R
CHAMBERS ISLAND  0400   49     360/ 18/ 23 1019.3R
MENOMINEE LKSHOR 0400   47      10/ 15/ 19 1020.0R
$$



USA.gov is the U.S. government's official web portal to all federal, state and local government web resources and services.